"Pseudo-MPEC" for P22g0U7

Created 2025 Oct 4 8:35:26 UT using Find_Orb

Click here for an explanation of pseudo-MPECs

 
 Astrometry: 
     P22g0U7* C2025 09 30.56768105 06 37.528-07 46 47.89   ~9UM5 20.92wXNEOCPF52
     P22g0U7  C2025 09 30.57926605 06 34.076-07 46 17.77   ~9UM5 20.73wXNEOCPF52
     P22g0U7  C2025 09 30.59080105 06 30.640-07 45 47.49   ~9UM5 20.79wXNEOCPF52
     P22g0U7 KC2025 10 01.38686805 02 47.353-07 11 24.50   ~A1A5 20.68GVNEOCPI52
     P22g0U7 KC2025 10 01.38867005 02 46.849-07 11 20.08   ~A1A5 20.46GVNEOCPI52
     P22g0U7 KC2025 10 01.39047405 02 46.295-07 11 15.25   ~A1A5 20.38GVNEOCPI52
     P22g0U7 KC2025 10 01.39328805 02 45.503-07 11 08.05   ~A1A5 20.91GVNEOCPI52
     P22g0U7 KC2025 10 01.39609705 02 44.689-07 11 01.10   ~A1A5 20.93GVNEOCPI52
     P22g0U7 3C2025 10 01.62794705 01 38.562-07 00 58.96   ~A1FZ 21.16GVNEOCPT14
     P22g0U7 3C2025 10 01.62892005 01 38.272-07 00 56.39   ~A1FZ 20.94GVNEOCPT14
     P22g0U7 3C2025 10 01.62990005 01 37.991-07 00 53.95   ~A1FZ 20.93GVNEOCPT14
     P22g0U7 pC2025 10 02.01919504 59 51.42 -06 44 31.5    ~A21K 20.6 GVNEOCPL01
     P22g0U7 pC2025 10 02.02235004 59 50.43 -06 44 24.0    ~A21K 21.0 GVNEOCPL01
     P22g0U7 pC2025 10 02.02697604 59 49.14 -06 44 11.3    ~A21K 20.7 GVNEOCPL01
     P22g0U7 KB2025 10 02.08362804 59 33.29 -06 41 47.5    ~A22Z 20.2 GVNEOCPI93
     P22g0U7 KB2025 10 02.08918804 59 31.71 -06 41 33.4    ~A22Z 20.4 GVNEOCPI93
     P22g0U7 KB2025 10 02.09452404 59 30.19 -06 41 20.7    ~A22Z 20.6 GVNEOCPI93

Station data:
(F52) Pan-STARRS 2, Haleakala  (N20.707382 W156.255910)  US/Hawaii.
   Observers J. Herman, T. Lowe, P. Minguez, A. Schultz, I. Smith. Measurers
   K. Chambers, T. de Boer, J. Fairlamb, H. Gao, M. Huber, C.-C. Lin, E.
   Magnier, Y. Ramanjooloo, R. Wainscoat, R. Weryk. 1.8-m Ritchey-Chrétien +
   CCD.
(I52) Steward Observatory, Mt. Lemmon Station  (N32.442570 W110.788920)
   US/Arizona. Measurers T. Beuden, V. F. Carvajal, D. Fay, J. B. Fazekas, D.
   C. Fuls, A. R. Gibbs, A. D. Grauer, H. Gröller, J. K. Hogan, R. A.
   Kowalski, S. M. Larson, G. J. Leonard, D. Rankin, R. L. Seaman, F. C.
   Shelly, K. W. Wierzchoś. 1.0-m prime focus + CCD.
(I93) St Pardon de Conques  (N44.558670 W0.202960)  France.  Observers F.
   Losse, W. D'Anna. Measurer F. Losse. 0.40-m f/3.7 reflector + CCD.
(L01) Višnjan Observatory, Tičan  (N45.290897 E13.749300)  Croatia.
   Observers K. Korlević, L. Poropat. Measurer K. Korlevic. 1.0-m f/2.9
   reflector + CCD.
(T14) Mauna Kea-UH/Tholen NEO Follow-Up (CFHT)  (N19.825252 W155.468876)
   US/Hawaii.  Observer R. Weryk. 3.6-m Canada-France-Hawaii Telescope.

Orbital elements:  P22g0U7
   Perihelion 2025 Aug 13.541393 +/- 0.135 TT = 12:59:36.3 (JD 2460901.041393)
Epoch 2025 Oct  2.0 TT = JDT 2460950.5   Earth MOID: 0.0544   Ma: 0.0483
M  12.640122207 +/- 0.44            (J2000 ecliptic)             AutoNEOCP
n   0.255569715 +/- 0.00828         Peri.  254.044623 +/- 0.027
a   2.459214759 +/- 0.0531          Node    58.082403 +/- 0.12
e   0.65319377 +/- 0.00788          Incl.    9.304678 +/- 0.08
P   3.85651                H 21.78  G  0.15   U  9.5
q 0.852870996 +/- 0.00104    Q 4.065558523 +/- 0.107
From 17 observations 2025 Sept. 30-Oct. 2 (36.6 hr); mean residual 0".29
Residuals in arcseconds: 
250930 F52  .01+  .06+    251001 I52  .03+  .12+    251002 L01  .25-  .32-    
250930 F52  .00   .07-    251001 I52  .07+  .12-    251002 L01  .18+  .68+    
250930 F52  .04+  .07+    251001 T14  .00   .05-    251002 I93  .22-  .45+    
251001 I52  .20-  .12+    251001 T14  .07-  .03+    251002 I93  .08-  .50+    
251001 I52  .09+  .08-    251001 T14  .03+  .05-    251002 I93  .03+  .29-    
251001 I52  .35-  .13+    251002 L01  1.1+  .16+    

Ephemerides (geocentric):
Date (UTC) HH   RA             Dec           delta  r     elong  mag " sig PA
---- --------  ------------   ------------  ------ ------ -----  --- --------
2025 10 04 09  04 49 09.714   -05 06 46.34  .24504 1.1335 117.2 20.9 2.81 127
2025 10 04 10  04 48 58.592   -05 05 05.84  .24519 1.1339 117.3 20.9 2.88 127
2025 10 04 11  04 48 47.477   -05 03 25.44  .24534 1.1342 117.4 20.9 2.96 127
2025 10 04 12  04 48 36.368   -05 01 45.13  .24549 1.1346 117.5 20.9 3.03 126
2025 10 04 13  04 48 25.267   -05 00 04.93  .24564 1.1350 117.6 20.9 3.11 126
2025 10 04 14  04 48 14.172   -04 58 24.81  .24579 1.1353 117.6 20.9 3.18 126
2025 10 04 15  04 48 03.084   -04 56 44.79  .24595 1.1357 117.7 20.9 3.26 126
2025 10 04 16  04 47 52.003   -04 55 04.87  .24610 1.1361 117.8 20.9 3.34 126
2025 10 04 17  04 47 40.929   -04 53 25.05  .24625 1.1364 117.9 20.9 3.42 126
2025 10 04 18  04 47 29.862   -04 51 45.32  .24641 1.1368 118.0 20.9 3.50 126
2025 10 04 19  04 47 18.801   -04 50 05.68  .24656 1.1372 118.1 20.9 3.58 126
2025 10 04 20  04 47 07.747   -04 48 26.14  .24671 1.1375 118.1 20.9 3.66 126
2025 10 04 21  04 46 56.700   -04 46 46.70  .24687 1.1379 118.2 20.9 3.74 126
2025 10 04 22  04 46 45.660   -04 45 07.35  .24702 1.1383 118.3 20.9 3.83 126
2025 10 04 23  04 46 34.626   -04 43 28.10  .24717 1.1386 118.4 20.9 3.91 125
2025 10 05 00  04 46 23.600   -04 41 48.95  .24733 1.1390 118.5 20.9 4.00 125
2025 10 05 01  04 46 12.580   -04 40 09.89  .24748 1.1394 118.6 20.9 4.08 125
2025 10 05 02  04 46 01.566   -04 38 30.93  .24764 1.1397 118.7 20.9 4.17 125
2025 10 05 03  04 45 50.560   -04 36 52.06  .24779 1.1401 118.7 20.9 4.26 125
2025 10 05 04  04 45 39.560   -04 35 13.29  .24795 1.1405 118.8 20.9 4.35 125
2025 10 05 05  04 45 28.567   -04 33 34.61  .24810 1.1408 118.9 20.9 4.44 125
2025 10 05 06  04 45 17.580   -04 31 56.03  .24826 1.1412 119.0 20.9 4.53 125
2025 10 05 07  04 45 06.601   -04 30 17.55  .24841 1.1416 119.1 20.9 4.62 125
2025 10 05 08  04 44 55.627   -04 28 39.17  .24857 1.1419 119.2 20.9 4.71 125
2025 10 05 09  04 44 44.661   -04 27 00.87  .24872 1.1423 119.2 20.9 4.80 125
2025 10 05 10  04 44 33.701   -04 25 22.68  .24888 1.1427 119.3 20.9 4.90 125
2025 10 05 11  04 44 22.748   -04 23 44.58  .24904 1.1430 119.4 20.9 4.99 125
2025 10 05 12  04 44 11.801   -04 22 06.58  .24919 1.1434 119.5 20.9 5.09 125
2025 10 05 13  04 44 00.861   -04 20 28.67  .24935 1.1438 119.6 20.9 5.19 125
2025 10 05 14  04 43 49.928   -04 18 50.86  .24951 1.1441 119.7 20.9 5.28 124
2025 10 05 15  04 43 39.001   -04 17 13.15  .24967 1.1445 119.7 20.9 5.38 124
2025 10 05 16  04 43 28.081   -04 15 35.53  .24982 1.1449 119.8 20.9 5.48 124
2025 10 05 17  04 43 17.168   -04 13 58.01  .24998 1.1452 119.9 20.9 5.58 124
2025 10 05 18  04 43 06.261   -04 12 20.58  .25014 1.1456 120.0 20.9 5.68 124
2025 10 05 19  04 42 55.360   -04 10 43.25  .25030 1.1460 120.1 20.9 5.78 124
2025 10 05 20  04 42 44.467   -04 09 06.02  .25046 1.1463 120.2 20.9 5.89 124
2025 10 05 21  04 42 33.579   -04 07 28.88  .25061 1.1467 120.2 20.9 5.99 124
2025 10 05 22  04 42 22.699   -04 05 51.84  .25077 1.1471 120.3 20.9 6.09 124
2025 10 05 23  04 42 11.824   -04 04 14.90  .25093 1.1475 120.4 20.9 6.20 124
2025 10 06 00  04 42 00.957   -04 02 38.05  .25109 1.1478 120.5 20.9 6.31 124
2025 10 06 01  04 41 50.096   -04 01 01.30  .25125 1.1482 120.6 20.9 6.41 124
2025 10 06 02  04 41 39.241   -03 59 24.64  .25141 1.1486 120.7 20.9 6.52 124
2025 10 06 03  04 41 28.393   -03 57 48.08  .25157 1.1489 120.8 20.9 6.63 124
2025 10 06 04  04 41 17.551   -03 56 11.62  .25173 1.1493 120.8 20.9 6.74 124
2025 10 06 05  04 41 06.716   -03 54 35.25  .25189 1.1497 120.9 20.9 6.85 124
2025 10 06 06  04 40 55.887   -03 52 58.98  .25205 1.1500 121.0 20.9 6.96 124
2025 10 06 07  04 40 45.065   -03 51 22.80  .25221 1.1504 121.1 20.9 7.07 124
2025 10 06 08  04 40 34.249   -03 49 46.72  .25237 1.1508 121.2 20.9 7.18 124